[[{"header":{"parameterUnit":"m.s-1","parameterCategory":1,"la1":30.2991,"la2":30.254,"lo1":-89.0895,"lo2":-89.0444,"dy":0.0017,"dx":0.0017,"nx":28,"ny":28,"refTime":"2026-02-15T03:00:00:Z","depth":0,"parameterNumber":2,"parameterNumberName":"U-component_of_WINDS"},"data":[0,0,0,0,0,0,0,0,0,0,0,0,0,0,0,0,0,0,0,0,0,0,0,0,0,0,0,0,0,0,0,0,0,0,0,0,0,0,0,0,0,0,0,0,0,0,0,0,0,0,0,0,0,0,0,0,0,0,-0.9094,-0.9095,0,-0.9159,-0.916,-0.9161,-0.9183,-0.9182,-0.9182,-0.9182,-0.9247,-0.9249,-0.9251,0,0,0,0,0,0,0,0,0,0,0,0,0,-0.8987,-0.8989,-0.9094,-0.9095,-0.9096,-0.9159,-0.916,-0.9161,-0.9183,-0.9182,-0.9182,-0.9182,-0.9246,-0.9249,-0.9251,0,0,0,0,0,0,0,0,0,0,0,0,0,-0.9041,-0.899,-0.9094,-0.9114,-0.9117,-0.9159,-0.916,-0.9161,-0.9183,-0.9182,-0.9182,-0.9182,-0.9245,-0.9248,-0.9251,-0.9278,0,0,-0.926,-0.9262,0,0,0,0,0,0,0,0,-0.9038,-0.9045,-0.9111,-0.9113,-0.9116,-0.9163,-0.9146,-0.92,-0.9183,-0.9158,-0.9182,-0.9181,-0.9219,-0.9224,-0.9237,-0.9281,-0.9284,-0.9261,-0.9262,-0.9264,-0.9265,0,0,0,0,0,0,0,-0.9034,-0.9042,-0.912,-0.9111,-0.9115,-0.912,-0.9127,-0.9157,-0.919,-0.916,-0.9162,-0.9169,-0.922,-0.9234,-0.9239,-0.9284,-0.9261,-0.9263,-0.9265,-0.9266,-0.9354,-0.9355,0,0,0,0,0,0,-0.9027,-0.9039,-0.9118,-0.9122,-0.9075,-0.9122,-0.913,-0.9148,-0.919,-0.9196,-0.9169,-0.917,-0.9229,-0.9235,-0.9241,-0.9276,-0.9264,-0.9266,-0.9268,-0.9353,-0.9354,-0.9355,0,0,0,0,0,0,-0.9025,-0.9034,-0.9115,-0.9081,-0.9092,-0.9124,-0.9144,-0.9149,-0.9163,-0.9197,-0.9203,-0.9178,-0.9229,-0.9237,-0.9269,-0.9278,-0.9268,-0.9271,-0.9353,-0.9354,-0.9354,-0.9345,0,0,0,0,0,0,-0.9022,-0.9033,-0.9044,-0.9081,-0.9094,-0.9142,-0.9145,-0.9151,-0.9169,-0.917,-0.9206,-0.9212,-0.923,-0.9264,-0.9272,-0.9282,-0.9273,-0.9352,-0.9353,-0.9354,-0.9344,-0.9345,-0.9346,0,0,0,0,0,-0.9018,-0.9038,-0.9044,-0.9054,-0.9108,-0.9143,-0.915,-0.917,-0.9169,-0.918,-0.9202,-0.921,-0.9276,-0.9267,-0.9276,-0.9288,-0.9352,-0.9353,-0.9354,-0.9344,-0.9345,-0.9346,0,0,0,0,0,0,-0.9,-0.9043,-0.9051,-0.9083,-0.9109,-0.9146,-0.9161,-0.9171,-0.9197,-0.9197,-0.9221,-0.9229,-0.9259,-0.9276,-0.9266,-0.9316,-0.9314,-0.9317,-0.9304,-0.9305,-0.9305,-0.9301,-0.9275,0,0,0,0,0,-0.9,-0.9025,-0.9061,-0.9086,-0.9099,-0.9128,-0.9144,-0.9158,-0.9185,-0.9196,-0.922,-0.9246,-0.9273,-0.9289,-0.9316,-0.9347,-0.9355,-0.9359,-0.936,-0.936,-0.9362,-0.9381,-0.9383,-0.9359,-0.9359,-0.9359,0,0,-0.9,-0.9026,-0.9041,-0.9084,-0.9105,-0.9131,-0.9137,-0.9163,-0.9182,-0.92,-0.9232,-0.925,-0.9281,-0.9313,-0.9328,-0.9328,-0.9371,-0.9362,-0.9362,-0.9364,-0.9383,-0.9385,-0.9387,-0.936,-0.9359,-0.9359,0,0,-0.9013,-0.9035,-0.9059,-0.9081,-0.9115,-0.9133,-0.9139,-0.9175,-0.9188,-0.9221,-0.9235,-0.9257,-0.9302,-0.9324,-0.9341,-0.9363,-0.9372,-0.9371,-0.9375,-0.9393,-0.9395,-0.9396,-0.9405,-0.9408,-0.9373,-0.9373,-0.9373,0,-0.9008,-0.9048,-0.907,-0.9097,-0.9115,-0.9133,-0.9158,-0.9178,-0.9217,-0.923,-0.9229,-0.9287,-0.9309,-0.9346,-0.9352,-0.9365,-0.9372,-0.9367,-0.9393,-0.9395,-0.9397,-0.9405,-0.9408,-0.9373,-0.9373,-0.9373,-0.9373,0,-0.9041,-0.9068,-0.9084,-0.9123,-0.9143,-0.9168,-0.9194,-0.9212,-0.9224,-0.9243,-0.9276,-0.9303,-0.9336,-0.9346,-0.9357,-0.9385,-0.9384,-0.9388,-0.9387,-0.9398,-0.9407,-0.941,-0.9372,-0.9372,-0.9372,-0.9373,0,0,-0.9044,-0.9096,-0.9102,-0.912,-0.9158,-0.918,-0.9206,-0.9238,-0.9253,-0.928,-0.9303,-0.9341,-0.9345,-0.9364,-0.9379,-0.9394,-0.9411,-0.9396,-0.9397,-0.9399,-0.9444,-0.9442,-0.9446,-0.9417,-0.9418,-0.9419,-0.9442,0,-0.9063,-0.9111,-0.9133,-0.9171,-0.9197,-0.9215,-0.9238,-0.9263,-0.9282,-0.9306,-0.9326,-0.9353,-0.9356,-0.9368,-0.9384,-0.9406,-0.9421,-0.9404,-0.9439,-0.944,-0.9432,-0.945,-0.9447,-0.9468,-0.9446,-0.9446,-0.9447,0,-0.9091,-0.9119,-0.9161,-0.9197,-0.9209,-0.9229,-0.9261,-0.9284,-0.9314,-0.9326,-0.9348,-0.9362,-0.939,-0.9387,-0.9426,-0.9414,-0.943,-0.9443,-0.9444,-0.9448,-0.9444,-0.9456,-0.9475,-0.9479,-0.9452,-0.9451,-0.9451,0,-0.9091,-0.9139,-0.917,-0.9185,-0.9228,-0.9242,-0.926,-0.929,-0.9308,-0.9336,-0.9348,-0.9378,-0.9395,-0.9418,-0.944,-0.9436,-0.9478,-0.9476,-0.9489,-0.9488,-0.9497,-0.9497,-0.9521,-0.9506,-0.9506,-0.9506,-0.9506,0,-0.911,-0.9134,-0.9171,-0.919,-0.9218,-0.9242,-0.927,-0.9289,-0.9316,-0.9339,-0.9355,-0.9377,-0.9404,-0.9429,-0.9446,-0.9476,-0.9483,-0.9494,-0.9499,-0.9493,-0.9492,-0.9504,-0.9504,-0.9507,-0.9506,-0.9506,-0.9506,0,-0.9114,-0.9139,-0.9174,-0.9212,-0.9223,-0.9242,-0.9274,-0.9294,-0.9313,-0.9343,-0.9351,-0.9381,-0.9412,-0.9435,-0.9474,-0.9486,-0.9518,-0.9523,-0.9509,-0.9511,-0.9523,-0.9522,-0.9556,-0.9562,-0.9543,-0.9543,-0.9543,0,-0.9125,-0.9144,-0.9185,-0.9202,-0.9221,-0.9248,-0.9268,-0.9292,-0.9311,-0.9347,-0.9363,-0.9394,-0.9421,-0.9468,-0.9494,-0.9524,-0.953,-0.954,-0.9534,-0.9529,-0.9531,-0.953,-0.9532,-0.954,-0.954,-0.954,-0.9541,0,-0.9141,-0.9153,-0.9181,-0.9213,-0.9236,-0.9263,-0.9289,-0.9302,-0.9332,-0.9353,-0.9384,-0.9405,-0.9446,-0.9477,-0.951,-0.9529,-0.954,-0.9542,-0.9547,-0.9542,-0.9533,-0.9539,-0.9511,-0.9541,-0.9541,-0.9541,-0.9541,-0.9541,-0.915,-0.9169,-0.9201,-0.9231,-0.9254,-0.9279,-0.93,-0.9322,-0.9349,-0.9385,-0.9397,-0.943,-0.946,-0.9506,-0.9525,-0.955,-0.9551,-0.9558,-0.9559,-0.9561,-0.9561,-0.9529,-0.9556,-0.9556,-0.9556,-0.9556,-0.9556,0,-0.9168,-0.919,-0.9218,-0.9256,-0.928,-0.9289,-0.9319,-0.9338,-0.9367,-0.9394,-0.9421,-0.9458,-0.9488,-0.9516,-0.9548,-0.9564,-0.957,-0.9571,-0.9571,-0.9575,-0.9558,-0.9551,-0.9566,-0.9566,-0.9566,-0.9566,-0.9566,-0.9566,-0.9181,-0.9214,-0.9229,-0.9274,-0.9295,-0.9328,-0.9345,-0.9368,-0.939,-0.9431,-0.9457,-0.9475,-0.9503,-0.9537,-0.9566,-0.9573,-0.9584,-0.9585,-0.9594,-0.9577,-0.9576,-0.9575,-0.9569,-0.9587,-0.9587,-0.9609,-0.9609,-0.9609]},{"header":{"parameterUnit":"m.s-1","parameterCategory":1,"la1":30.2991,"la2":30.254,"lo1":-89.0895,"lo2":-89.0444,"dy":0.0017,"dx":0.0017,"nx":28,"ny":28,"refTime":"2026-02-15T03:00:00:Z","depth":0,"parameterNumber":3,"parameterNumberName":"V-component_of_WINDS"},"data":[0,0,0,0,0,0,0,0,0,0,0,0,0,0,0,0,0,0,0,0,0,0,0,0,0,0,0,0,0,0,0,0,0,0,0,0,0,0,0,0,0,0,0,0,0,0,0,0,0,0,0,0,0,0,0,0,0,0,-1.4617,-1.4618,0,-1.4711,-1.4712,-1.4713,-1.475,-1.475,-1.4749,-1.4749,-1.4847,-1.485,-1.4853,0,0,0,0,0,0,0,0,0,0,0,0,0,-1.4472,-1.4474,-1.4617,-1.4618,-1.4619,-1.4711,-1.4712,-1.4714,-1.475,-1.475,-1.4749,-1.4749,-1.4846,-1.4849,-1.4853,0,0,0,0,0,0,0,0,0,0,0,0,0,-1.4547,-1.4475,-1.4617,-1.4648,-1.4652,-1.4711,-1.4712,-1.4714,-1.475,-1.475,-1.4749,-1.4749,-1.4845,-1.4849,-1.4853,-1.4888,0,0,-1.4866,-1.4868,0,0,0,0,0,0,0,0,-1.4543,-1.4553,-1.4643,-1.4646,-1.4651,-1.4718,-1.4697,-1.4772,-1.475,-1.4713,-1.4749,-1.4749,-1.4805,-1.4812,-1.4831,-1.4892,-1.4897,-1.4867,-1.4869,-1.4871,-1.4873,0,0,0,0,0,0,0,-1.4538,-1.4549,-1.4654,-1.4644,-1.4649,-1.4659,-1.4669,-1.4712,-1.476,-1.4716,-1.4719,-1.4729,-1.4807,-1.4827,-1.4833,-1.4898,-1.4867,-1.4871,-1.4873,-1.4875,-1.4997,-1.4998,0,0,0,0,0,0,-1.4527,-1.4544,-1.4651,-1.4657,-1.4595,-1.4662,-1.4673,-1.4697,-1.476,-1.4769,-1.473,-1.4731,-1.4819,-1.4828,-1.4837,-1.4884,-1.4871,-1.4875,-1.4878,-1.4996,-1.4997,-1.4998,0,0,0,0,0,0,-1.4524,-1.4536,-1.4647,-1.4602,-1.4616,-1.4665,-1.4691,-1.4699,-1.4719,-1.477,-1.4779,-1.4741,-1.482,-1.4831,-1.4876,-1.4888,-1.4877,-1.4881,-1.4996,-1.4997,-1.4998,-1.4977,0,0,0,0,0,0,-1.4519,-1.4535,-1.4547,-1.4601,-1.4619,-1.4683,-1.4692,-1.4701,-1.4726,-1.4728,-1.4783,-1.4791,-1.482,-1.4869,-1.488,-1.4894,-1.4884,-1.4995,-1.4996,-1.4997,-1.4977,-1.4977,-1.4978,0,0,0,0,0,-1.4514,-1.4537,-1.4548,-1.456,-1.4635,-1.4684,-1.4694,-1.4726,-1.4727,-1.4741,-1.4774,-1.479,-1.4885,-1.4873,-1.4886,-1.4901,-1.4994,-1.4996,-1.4997,-1.4977,-1.4977,-1.4978,0,0,0,0,0,0,-1.4483,-1.4545,-1.4557,-1.4598,-1.4636,-1.469,-1.4708,-1.4725,-1.4763,-1.4764,-1.4803,-1.4815,-1.4857,-1.4883,-1.487,-1.494,-1.4941,-1.4945,-1.4921,-1.4922,-1.4922,-1.4916,-1.4888,0,0,0,0,0,-1.448,-1.4514,-1.4567,-1.4598,-1.4616,-1.4659,-1.4681,-1.4703,-1.4744,-1.476,-1.4796,-1.4835,-1.4875,-1.49,-1.4938,-1.4981,-1.4995,-1.4998,-1.4998,-1.4998,-1.5002,-1.503,-1.5033,-1.5003,-1.5003,-1.5003,0,0,-1.4476,-1.4514,-1.4533,-1.4593,-1.4624,-1.466,-1.4672,-1.4708,-1.4736,-1.4765,-1.4811,-1.4839,-1.4886,-1.493,-1.4952,-1.4954,-1.5013,-1.5,-1.5,-1.5003,-1.5032,-1.5034,-1.5037,-1.5004,-1.5004,-1.5004,0,0,-1.4487,-1.4518,-1.455,-1.4582,-1.463,-1.4658,-1.4666,-1.4719,-1.4739,-1.4785,-1.4809,-1.4842,-1.4908,-1.4941,-1.4967,-1.4994,-1.5011,-1.5006,-1.5008,-1.5035,-1.5037,-1.5039,-1.5052,-1.5056,-1.5009,-1.5009,-1.5009,0,-1.4476,-1.453,-1.4563,-1.4599,-1.4626,-1.4656,-1.4689,-1.4718,-1.4776,-1.4795,-1.4796,-1.4882,-1.4915,-1.4969,-1.4976,-1.4995,-1.5007,-1.5,-1.5034,-1.5037,-1.5039,-1.5052,-1.5056,-1.5008,-1.5008,-1.5008,-1.5008,0,-1.4515,-1.4552,-1.4572,-1.4628,-1.4657,-1.4691,-1.4732,-1.4758,-1.4778,-1.4807,-1.4855,-1.4896,-1.4946,-1.496,-1.4979,-1.5018,-1.5019,-1.5026,-1.5028,-1.5041,-1.5053,-1.5058,-1.5007,-1.5007,-1.5007,-1.5007,0,0,-1.4507,-1.4584,-1.4591,-1.4619,-1.4675,-1.4705,-1.4742,-1.479,-1.4813,-1.4852,-1.4886,-1.4942,-1.4951,-1.498,-1.5004,-1.5027,-1.505,-1.5033,-1.5034,-1.5037,-1.5099,-1.5095,-1.5099,-1.5061,-1.5062,-1.5063,-1.5096,0,-1.4527,-1.4594,-1.4627,-1.468,-1.4717,-1.4747,-1.478,-1.4819,-1.4848,-1.4884,-1.4916,-1.4957,-1.4964,-1.4982,-1.5006,-1.5042,-1.5063,-1.504,-1.5095,-1.5096,-1.5084,-1.5105,-1.51,-1.5129,-1.5101,-1.5102,-1.5103,0,-1.4559,-1.46,-1.4657,-1.4713,-1.4729,-1.4758,-1.4807,-1.484,-1.4887,-1.4907,-1.494,-1.4964,-1.5006,-1.5005,-1.5065,-1.5048,-1.5073,-1.5094,-1.5096,-1.5104,-1.5101,-1.5116,-1.5139,-1.5144,-1.511,-1.5109,-1.5109,0,-1.4551,-1.462,-1.4664,-1.4686,-1.4752,-1.4772,-1.48,-1.4846,-1.4874,-1.4917,-1.4936,-1.4983,-1.5009,-1.5046,-1.5083,-1.5078,-1.5141,-1.5141,-1.516,-1.516,-1.5173,-1.5172,-1.5203,-1.5186,-1.5186,-1.5186,-1.5185,0,-1.457,-1.4605,-1.4662,-1.4689,-1.4729,-1.4768,-1.4807,-1.4838,-1.4879,-1.4915,-1.4943,-1.4975,-1.5021,-1.506,-1.5089,-1.5137,-1.5148,-1.5166,-1.5174,-1.5165,-1.5163,-1.5183,-1.5182,-1.5187,-1.5186,-1.5186,-1.5186,0,-1.4567,-1.4607,-1.4657,-1.4716,-1.4732,-1.4759,-1.4811,-1.4839,-1.4871,-1.4915,-1.4928,-1.4977,-1.5025,-1.5065,-1.5128,-1.5147,-1.5198,-1.5205,-1.5182,-1.5186,-1.5204,-1.5203,-1.525,-1.526,-1.5234,-1.5234,-1.5234,0,-1.4578,-1.4605,-1.4668,-1.4694,-1.4722,-1.4763,-1.4793,-1.4833,-1.4863,-1.492,-1.4942,-1.4992,-1.5034,-1.511,-1.5152,-1.5201,-1.5211,-1.5225,-1.5219,-1.521,-1.5215,-1.5214,-1.5218,-1.5225,-1.5226,-1.5226,-1.5226,0,-1.4593,-1.4613,-1.4654,-1.4703,-1.4738,-1.4778,-1.482,-1.4839,-1.4888,-1.492,-1.497,-1.5003,-1.5068,-1.5118,-1.5172,-1.5203,-1.5224,-1.5227,-1.5235,-1.5226,-1.5213,-1.5223,-1.5185,-1.5226,-1.5226,-1.5226,-1.5226,-1.5226,-1.4599,-1.4627,-1.4676,-1.4722,-1.4758,-1.4797,-1.4828,-1.4864,-1.4906,-1.4963,-1.4984,-1.5036,-1.5085,-1.516,-1.5191,-1.5233,-1.5236,-1.5246,-1.5249,-1.5251,-1.5252,-1.5205,-1.5243,-1.5243,-1.5243,-1.5243,-1.5243,0,-1.4618,-1.4652,-1.4694,-1.4753,-1.479,-1.4806,-1.4854,-1.4884,-1.4929,-1.4973,-1.5015,-1.5074,-1.5124,-1.5171,-1.5224,-1.5249,-1.526,-1.5262,-1.5261,-1.5269,-1.5245,-1.5234,-1.5252,-1.5252,-1.5252,-1.5252,-1.5252,-1.5252,-1.4632,-1.4681,-1.4706,-1.4774,-1.4808,-1.4859,-1.4885,-1.4923,-1.4958,-1.5023,-1.5065,-1.5096,-1.5142,-1.5199,-1.5247,-1.526,-1.5279,-1.5279,-1.5294,-1.5271,-1.527,-1.5268,-1.5259,-1.5282,-1.5282,-1.5315,-1.5315,-1.5316]}]]